When you browse on this site, cookies collect data to enhance your experience and personalize the content and advertising you see.
Visit our Privacy Policy to learn more. By continuing to use the site, you agree to this use of cookies and data.
  • In Spain
  • List of Countries
  • For 7 days
  • Water Temperature
  • Weather Map
  • Weather Widgets
  • user-avatar
    Login

    Hourly Weather Makadi Bey

    Today, 29 February, Saturday

    Time Temperature Precipitation Wind Pressure Humidity
    00:00 +14°C° 0 mm 2 mps 706 mmHg 34%
    01:00 +14°C° 0 mm 2 mps 705 mmHg 34%
    02:00 +14°C° 0 mm 2 mps 705 mmHg 34%
    03:00 +14°C° 0 mm 2 mps 705 mmHg 34%
    04:00 +13°C° 0 mm 2 mps 705 mmHg 34%
    05:00 +13°C° 0 mm 2 mps 705 mmHg 34%
    06:00 +15°C° 0 mm 2 mps 706 mmHg 29%
    07:00 +17°C° 0 mm 3 mps 707 mmHg 25%
    08:00 +20°C° 0 mm 3 mps 707 mmHg 21%
    09:00 +21°C° 0 mm 4 mps 707 mmHg 18%
    10:00 +22°C° 0 mm 5 mps 708 mmHg 16%
    11:00 +24°C° 0 mm 6 mps 708 mmHg 13%
    12:00 +24°C° 0 mm 6 mps 708 mmHg 13%
    13:00 +26°C° 0 mm 7 mps 707 mmHg 13%
    14:00 +26°C° 0 mm 7 mps 707 mmHg 13%
    15:00 +24°C° 0 mm 7 mps 707 mmHg 14%
    16:00 +23°C° 0 mm 8 mps 707 mmHg 16%
    17:00 +21°C° 0 mm 8 mps 707 mmHg 18%
    18:00 +18°C° 0 mm 7 mps 707 mmHg 24%
    19:00 +16°C° 0 mm 6 mps 707 mmHg 29%
    20:00 +14°C° 0 mm 5 mps 707 mmHg 35%
    21:00 +13°C° 0 mm 5 mps 707 mmHg 38%
    22:00 +12°C° 0 mm 5 mps 707 mmHg 41%
    23:00 +12°C° 0 mm 4 mps 707 mmHg 44%

    Tomorrow, 1 March, Sunday

    Time Temperature Precipitation Wind Pressure Humidity
    00:00 +11°C° 0 mm 4 mps 707 mmHg 47%
    01:00 +10°C° 0 mm 4 mps 706 mmHg 50%
    02:00 +10°C° 0 mm 4 mps 706 mmHg 54%
    03:00 +8°C° 0 mm 4 mps 706 mmHg 58%
    04:00 +8°C° 0 mm 3 mps 706 mmHg 62%
    05:00 +8°C° 0 mm 3 mps 706 mmHg 66%
    06:00 +9°C° 0 mm 3 mps 707 mmHg 60%
    07:00 +11°C° 0 mm 3 mps 708 mmHg 54%
    08:00 +12°C° 0 mm 3 mps 708 mmHg 48%
    09:00 +14°C° 0 mm 3 mps 709 mmHg 39%
    10:00 +18°C° 0 mm 2 mps 709 mmHg 29%
    11:00 +20°C° 0 mm 2 mps 710 mmHg 19%
    12:00 +22°C° 0 mm 3 mps 709 mmHg 17%
    13:00 +24°C° 0 mm 3 mps 709 mmHg 14%
    14:00 +25°C° 0 mm 3 mps 708 mmHg 12%
    15:00 +25°C° 0 mm 3 mps 708 mmHg 13%
    16:00 +24°C° 0 mm 3 mps 708 mmHg 14%
    17:00 +22°C° 0 mm 3 mps 708 mmHg 15%
    18:00 +19°C° 0 mm 3 mps 708 mmHg 22%
    19:00 +16°C° 0 mm 2 mps 708 mmHg 29%
    20:00 +13°C° 0 mm 2 mps 708 mmHg 36%
    21:00 +12°C° 0 mm 1 mps 708 mmHg 36%
    22:00 +11°C° 0 mm 1 mps 708 mmHg 37%
    23:00 +10°C° 0 mm 1 mps 708 mmHg 38%

    Day after tomorrow, 2 March, Monday

    Time Temperature Precipitation Wind Pressure Humidity
    00:00 +9°C° 0 mm 1 mps 707 mmHg 39%
    01:00 +8°C° 0 mm 0 mps 707 mmHg 40%
    02:00 +7°C° 0 mm 0 mps 707 mmHg 41%
    03:00 +7°C° 0 mm 0 mps 707 mmHg 44%
    04:00 +6°C° 0 mm 0 mps 707 mmHg 47%
    05:00 +6°C° 0 mm 0 mps 707 mmHg 50%
    06:00 +9°C° 0 mm 0 mps 707 mmHg 41%
    07:00 +13°C° 0 mm 1 mps 708 mmHg 33%
    08:00 +15°C° 0 mm 1 mps 709 mmHg 24%
    09:00 +19°C° 0 mm 1 mps 709 mmHg 20%
    10:00 +21°C° 0 mm 1 mps 709 mmHg 16%
    11:00 +23°C° 0 mm 1 mps 710 mmHg 13%
    12:00 +25°C° 0 mm 2 mps 709 mmHg 12%
    13:00 +26°C° 0 mm 2 mps 709 mmHg 11%
    14:00 +27°C° 0 mm 2 mps 709 mmHg 10%
    15:00 +26°C° 0 mm 3 mps 708 mmHg 16%
    16:00 +24°C° 0 mm 3 mps 708 mmHg 22%
    17:00 +22°C° 0 mm 3 mps 708 mmHg 28%
    18:00 +19°C° 0 mm 3 mps 708 mmHg 38%
    19:00 +16°C° 0 mm 2 mps 708 mmHg 47%
    20:00 +14°C° 0 mm 2 mps 708 mmHg 57%
    21:00 +13°C° 0 mm 2 mps 708 mmHg 56%
    22:00 +13°C° 0 mm 2 mps 708 mmHg 55%
    23:00 +12°C° 0 mm 1 mps 708 mmHg 53%

    3 March, Tuesday

    Time Temperature Precipitation Wind Pressure Humidity
    00:00 +12°C° 0 mm 1 mps 707 mmHg 49%
    01:00 +11°C° 0 mm 1 mps 707 mmHg 46%
    02:00 +11°C° 0 mm 1 mps 707 mmHg 42%
    03:00 +10°C° 0 mm 1 mps 707 mmHg 39%
    04:00 +10°C° 0 mm 1 mps 706 mmHg 36%
    05:00 +10°C° 0 mm 1 mps 706 mmHg 33%
    06:00 +13°C° 0 mm 1 mps 707 mmHg 28%
    07:00 +16°C° 0 mm 1 mps 708 mmHg 23%
    08:00 +20°C° 0 mm 1 mps 709 mmHg 18%
    09:00 +21°C° 0 mm 2 mps 709 mmHg 15%
    10:00 +24°C° 0 mm 3 mps 709 mmHg 12%
    11:00 +26°C° 0 mm 3 mps 709 mmHg 9%
    12:00 +27°C° 0 mm 3 mps 709 mmHg 9%
    13:00 +28°C° 0 mm 3 mps 708 mmHg 9%
    14:00 +28°C° 0 mm 3 mps 708 mmHg 9%
    15:00 +27°C° 0 mm 3 mps 707 mmHg 12%
    16:00 +26°C° 0 mm 3 mps 707 mmHg 15%
    17:00 +25°C° 0 mm 3 mps 707 mmHg 18%
    18:00 +21°C° 0 mm 3 mps 707 mmHg 24%
    19:00 +18°C° 0 mm 2 mps 706 mmHg 30%
    20:00 +15°C° 0 mm 1 mps 706 mmHg 35%
    21:00 +14°C° 0 mm 1 mps 706 mmHg 35%
    22:00 +14°C° 0 mm 1 mps 706 mmHg 35%
    23:00 +13°C° 0 mm 1 mps 706 mmHg 35%

    4 March, Wednesday

    Time Temperature Precipitation Wind Pressure Humidity
    00:00 +13°C° 0 mm 1 mps 705 mmHg 41%
    01:00 +11°C° 0 mm 0 mps 705 mmHg 48%
    02:00 +11°C° 0 mm 0 mps 705 mmHg 54%
    03:00 +11°C° 0 mm 0 mps 705 mmHg 55%
    04:00 +10°C° 0 mm 0 mps 704 mmHg 56%
    05:00 +10°C° 0 mm 0 mps 704 mmHg 57%
    06:00 +14°C° 0 mm 0 mps 705 mmHg 43%
    07:00 +17°C° 0 mm 0 mps 706 mmHg 28%
    08:00 +23°C° 0 mm 1 mps 707 mmHg 14%
    09:00 +25°C° 0 mm 1 mps 707 mmHg 11%
    10:00 +26°C° 0 mm 2 mps 707 mmHg 9%
    11:00 +28°C° 0 mm 2 mps 708 mmHg 7%
    12:00 +29°C° 0 mm 3 mps 707 mmHg 7%
    13:00 +29°C° 0 mm 3 mps 706 mmHg 7%
    14:00 +30°C° 0 mm 4 mps 706 mmHg 7%
    15:00 +29°C° 0 mm 3 mps 706 mmHg 7%
    16:00 +28°C° 0 mm 3 mps 705 mmHg 8%
    17:00 +27°C° 0 mm 2 mps 705 mmHg 8%
    18:00 +24°C° 0 mm 2 mps 705 mmHg 11%
    19:00 +20°C° 0 mm 1 mps 705 mmHg 14%
    20:00 +16°C° 0 mm 1 mps 704 mmHg 17%
    21:00 +16°C° 0 mm 1 mps 704 mmHg 16%
    22:00 +15°C° 0 mm 1 mps 704 mmHg 15%
    23:00 +15°C° 0 mm 2 mps 704 mmHg 15%

    5 March, Thursday

    Time Temperature Precipitation Wind Pressure Humidity
    00:00 +14°C° 0 mm 1 mps 704 mmHg 16%
    01:00 +14°C° 0 mm 1 mps 704 mmHg 17%
    02:00 +13°C° 0 mm 1 mps 703 mmHg 18%
    03:00 +13°C° 0 mm 1 mps 703 mmHg 19%
    04:00 +13°C° 0 mm 1 mps 703 mmHg 21%
    05:00 +13°C° 0 mm 2 mps 703 mmHg 22%
    06:00 +16°C° 0 mm 1 mps 704 mmHg 18%
    07:00 +20°C° 0 mm 1 mps 705 mmHg 13%
    08:00 +24°C° 0 mm 1 mps 706 mmHg 9%
    09:00 +25°C° 0 mm 2 mps 706 mmHg 8%
    10:00 +27°C° 0 mm 4 mps 706 mmHg 8%
    11:00 +29°C° 0 mm 5 mps 706 mmHg 7%
    12:00 +30°C° 0 mm 5 mps 706 mmHg 7%
    13:00 +30°C° 0 mm 6 mps 706 mmHg 7%
    14:00 +32°C° 0 mm 7 mps 705 mmHg 7%
    15:00 +30°C° 0 mm 7 mps 705 mmHg 7%
    16:00 +29°C° 0 mm 7 mps 705 mmHg 8%
    17:00 +28°C° 0 mm 8 mps 705 mmHg 8%
    18:00 +26°C° 0 mm 7 mps 705 mmHg 12%
    19:00 +22°C° 0 mm 6 mps 705 mmHg 17%
    20:00 +20°C° 0 mm 5 mps 705 mmHg 22%
    21:00 +17°C° 0 mm 5 mps 705 mmHg 25%
    22:00 +16°C° 0 mm 5 mps 705 mmHg 29%
    23:00 +15°C° 0 mm 4 mps 706 mmHg 33%
    Show more